Location: Zagreb
(45.8000°N, 16.0000°E)
Time: 22:34:40
(UTC+01:00)

Tiros 1 despin weight - Pass Details

Date: 28 January 2020
Orbit: 594 x 642 km, 48.2° (Epoch: 24 February)

Event Time Altitude Azimuth Distance (km) Brightness Sun altitude
Rises 09:47:26 0° 220° (SW) 2,836 ? 18.4°
Reaches altitude 10° 09:49:50 10° 211° (SSW) 1,943 ? 18.6°
Maximum altitude 09:53:54 35° 145° (SE) 987 ? 19.0°
Drops below altitude 10° 09:58:02 10° 80° (E) 1,978 ? 19.4°
Sets 10:00:30 0° 72° (ENE) 2,895 ? 19.6°
